#timestamp,LO_Frequency,Hit 
1500674415.6,286044936.8,N
1500674435.5,286044936.4,N
1500674455.3,286044938.2,N
1500674475.1,286044936.2,N
1500674495.9,286044935.8,N
1500674515.7,286044938.2,N
1500674535.5,286044934.4,N
1500674555.4,286044937.0,N
1500674575.2,286044936.7,N
1500674595.1,286044936.1,N
1500674596.0,286044936.1,N
1500674615.8,286044937.4,N
1500674635.6,286044935.9,N
1500674655.5,286044938.3,N
1500674675.3,286044935.7,N
1500674695.2,286044935.6,N
1500674715.9,286044936.4,N
1500674735.7,286044936.8,N
1500674755.6,286044936.7,N
1500674775.4,286044935.9,N
1500674795.2,286044938.2,N
1500674815.1,286044934.5,N
1500674816.0,286044934.5,N
1500674835.8,286044940.3,N
1500674855.7,286044935.7,N
1500674875.5,286044938.5,N
1500674895.3,286044937.8,N
1500674915.2,286044937.7,N
1500674935.0,286044939.6,N
1500674935.9,286044939.6,N
1500674955.8,286044940.6,N
1500674975.6,286044940.6,N
1500674995.4,286044939.3,N
1500675015.3,286044939.1,N
1500675035.1,286044939.5,N
1500675055.8,286044939.3,N
1500675075.7,286044939.4,N
1500675095.5,286044938.8,N
1500675115.4,286044943.0,N
1500675135.2,286044944.6,N
1500675155.0,286044943.3,N
1500675155.9,286044943.3,N
1500675175.8,286044941.1,N
1500675195.6,286044940.7,N
1500675215.5,286044941.7,N
1500675235.3,286044940.5,N
1500675255.1,286044938.2,N
1500675275.9,286044942.4,N
1500675295.7,286044943.2,N
1500675315.5,286044944.3,N
1500675335.4,286044942.1,N
1500675355.2,286044944.7,N
1500675375.1,286044944.9,N
1500675376.0,286044944.9,N
1500675395.8,286044942.2,N
1500675415.6,286044944.4,N
1500675435.5,286044944.1,N
1500675455.3,286044944.4,N
1500675475.2,286044944.5,N
1500675495.9,286044944.0,N
1500675515.7,286044943.9,N
1500675535.6,286044944.1,N
1500675555.4,286044944.2,N
1500675575.2,286044946.2,N
1500675595.1,286044946.1,N
1500675596.0,286044946.1,N
1500675615.8,286044945.5,N
1500675635.7,286044946.3,N
1500675655.5,286044945.6,N
1500675675.3,286044945.6,N
1500675695.2,286044945.9,N
1500675715.0,286044948.2,N
1500675715.9,286044948.2,N
1500675735.8,286044947.4,N
1500675755.6,286044948.1,N
1500675775.4,286044946.8,N
1500675795.3,286044947.3,N
1500675815.1,286044947.2,N
1500675835.9,286044947.5,N
1500675855.7,286044947.7,N
1500675875.5,286044947.3,N
1500675895.4,286044947.4,N
1500675915.2,286044946.8,N
1500675935.0,286044947.3,N
1500675935.9,286044947.3,N
1500675955.8,286044947.0,N
1500675975.6,286044946.8,N
1500675995.5,286044949.0,N
1500676015.3,286044951.1,N
1500676035.1,286044949.2,N
1500676055.9,286044949.9,N
1500676075.7,286044948.6,N
1500676095.5,286044951.3,N
1500676115.4,286044948.6,N
1500676135.2,286044949.4,N
1500676155.1,286044951.4,N
1500676156.0,286044951.4,N
1500676175.8,286044950.6,N
1500676195.6,286044949.0,N
1500676215.5,286044950.3,N
1500676235.3,286044952.1,N
1500676255.2,286044950.2,N
1500676275.9,286044950.9,N
1500676295.7,286044950.7,N
1500676315.6,286044950.2,N
1500676335.4,286044954.6,N
1500676355.2,286044954.7,N
1500676375.1,286044951.6,N
1500676376.0,286044951.6,N
1500676395.8,286044951.6,N
1500676415.7,286044951.8,N
1500676435.5,286044951.6,N
1500676455.3,286044954.6,N
1500676475.2,286044953.7,N
1500676495.0,286044952.0,N
1500676495.9,286044952.0,N
1500676515.8,286044952.9,N
1500676535.6,286044954.3,N
1500676555.4,286044951.6,N
1500676575.3,286044951.8,N
1500676595.1,286044951.9,N
1500676615.8,286044951.8,N
1500676635.7,286044954.6,N
1500676655.5,286044953.7,N
1500676675.4,286044955.8,N
1500676695.2,286044955.0,N
1500676715.0,286044955.0,N
1500676715.9,286044955.0,N
1500676735.8,286044955.0,N
1500676755.6,286044955.1,N
1500676775.5,286044955.2,N
1500676795.3,286044957.3,N
1500676815.1,286044956.6,N
1500676835.9,286044956.6,N
1500676855.7,286044956.4,N
1500676875.5,286044959.3,N
1500676895.4,286044956.5,N
1500676915.2,286044957.0,N
1500676935.1,286044956.8,N
1500676936.0,286044956.8,N
1500676955.8,286044956.5,N
1500676975.6,286044959.1,N
1500676995.5,286044959.5,N
1500677015.3,286044956.9,N
1500677035.2,286044956.7,N
1500677055.9,286044956.8,N
1500677075.7,286044959.2,N
1500677095.6,286044956.6,N
1500677115.4,286044956.7,N
1500677135.3,286044958.2,N
1500677155.1,286044959.2,N
1500677156.0,286044959.2,N
1500677175.8,286044958.5,N
1500677195.7,286044958.0,N
1500677215.5,286044960.9,N
1500677235.3,286044958.5,N
1500677255.2,286044958.8,N
1500677275.0,286044958.4,N
1500677275.9,286044958.4,N
1500677295.8,286044960.3,N
1500677315.6,286044960.4,N
1500677335.4,286044961.1,N
1500677355.3,286044962.7,N
1500677375.1,286044960.9,N
1500677395.9,286044960.7,N
1500677415.7,286044959.9,N
1500677435.5,286044960.1,N
1500677455.4,286044963.8,N
1500677475.2,286044960.0,N
1500677495.1,286044962.3,N
1500677526.0,286044959.6,Y
1500677535.0,286045779.6,N
1500677535.9,286045779.6,N
1500677555.7,286047002.7,N
1500677575.6,286047002.3,N
1500677595.4,286047002.4,N
1500677615.3,286047001.9,N
1500677635.1,286047003.9,N
1500677636.0,286047003.9,N
1500677655.8,286047001.9,N
1500677675.7,286047002.8,N
1500677695.5,286047002.0,N
1500677715.3,286047001.6,N
1500677735.2,286047001.3,N
1500677755.0,286047002.3,N
1500677755.9,286047002.3,N
1500677775.8,286047004.3,N
1500677795.6,286047003.9,N
1500677815.4,286047001.5,N
1500677835.3,286047003.1,N
1500677855.1,286047005.9,N
1500677875.9,286047001.9,N
1500677895.7,286047003.7,N
1500677915.5,286047001.7,N
1500677935.4,286047001.4,N
1500677955.2,286047003.9,N
1500677975.0,286047004.7,N
1500677975.9,286047004.7,N
1500677995.8,286047003.1,N
